EDT,Max TemperatureF,Mean TemperatureF,Min TemperatureF,Max Dew PointF,MeanDew PointF,Min DewpointF,Max Humidity, Mean Humidity, Min Humidity, Max Sea Level PressureIn, Mean Sea Level PressureIn, Min Sea Level PressureIn, Max VisibilityMiles, Mean VisibilityMiles, Min VisibilityMiles, Max Wind SpeedMPH, Mean Wind SpeedMPH, Max Gust SpeedMPH,PrecipitationIn, CloudCover, Events, WindDirDegrees
2011-9-1,91,81,72,70,65,61,81,61,40,30.24,30.13,30.05,10,9,6,6,2,,0.02,3,,71
2011-9-2,95,83,71,69,64,59,91,56,31,30.09,30.03,29.95,10,9,6,9,2,,0.00,0,,192
2011-9-3,93,83,73,68,66,63,79,57,37,30.00,29.95,29.89,10,10,7,10,6,,0.00,1,,90
2011-9-4,84,76,71,67,65,63,84,67,52,29.96,29.91,29.86,10,10,9,10,4,16,0.00,4,Rain,138
2011-9-5,75,72,69,74,71,68,100,96,93,29.93,29.73,29.56,10,5,1,16,6,23,1.32,8,Rain-Thunderstorm,135
2011-9-6,73,66,60,72,62,57,100,93,78,29.89,29.72,29.51,10,6,2,16,9,25,0.25,8,Rain,167
2011-9-7,69,63,57,59,58,57,100,90,70,29.99,29.94,29.86,10,8,2,8,3,,0.01,8,Rain,229
2011-9-8,73,64,57,59,57,56,97,76,59,29.97,29.94,29.91,10,10,10,9,5,,0.00,3,,291
2011-9-9,77,66,57,58,56,52,96,72,44,29.99,29.94,29.90,10,10,10,12,5,17,0.00,0,,282
2011-9-10,82,69,57,58,54,49,93,64,33,30.05,30.01,29.98,10,10,10,9,5,16,0.00,0,,293
2011-9-11,84,70,59,57,53,48,87,57,32,30.11,30.07,30.04,10,10,10,10,3,,0.00,0,,307
2011-9-12,84,74,63,60,58,56,81,62,38,30.14,30.07,30.01,10,10,10,9,4,,0.00,0,,296
2011-9-13,87,74,62,60,57,52,90,61,31,30.06,30.03,29.98,10,10,10,6,3,,0.00,0,,324
2011-9-14,90,77,66,61,56,50,73,53,27,30.02,29.98,29.91,10,10,10,6,3,,0.00,0,,359
2011-9-15,84,73,63,66,62,57,90,70,49,30.02,29.94,29.89,10,10,10,14,5,20,0.00,2,,294
2011-9-16,66,62,57,57,50,45,78,62,52,30.27,30.18,30.04,10,10,10,17,10,25,0.00,7,,66
2011-9-17,73,64,55,55,50,44,78,66,53,30.31,30.25,30.19,10,10,10,12,9,,0.00,4,,80
2011-9-18,77,65,55,56,54,53,94,75,48,30.33,30.27,30.20,10,10,10,12,8,18,0.00,4,,91
2011-9-19,70,66,61,56,55,53,78,70,59,30.27,30.17,30.10,10,10,10,13,8,18,0.00,6,,79
2011-9-20,72,66,61,65,61,55,90,82,77,30.16,30.11,30.06,10,10,8,10,7,,0.00,7,Rain,65
2011-9-21,82,74,66,70,67,64,100,89,56,30.14,30.10,30.02,10,6,1,10,5,,0.10,7,Rain,84
2011-9-22,79,72,66,70,68,65,100,91,74,30.19,30.12,30.06,10,8,2,9,6,,0.26,7,Rain-Thunderstorm,95
2011-9-23,80,72,64,68,65,59,100,84,52,30.12,30.03,29.94,10,9,3,12,5,16,0.57,5,Rain-Thunderstorm,283
2011-9-24,80,70,60,63,57,37,100,79,22,30.01,29.98,29.92,10,6,0,12,4,,0.00,3,Fog,289
2011-9-25,84,72,60,67,59,52,90,70,43,30.02,29.97,29.90,10,10,10,9,3,20,0.00,3,,88
2011-9-26,84,76,68,70,66,56,100,85,38,30.00,29.95,29.86,10,6,1,10,6,18,0.04,7,Rain-Thunderstorm,155
2011-9-27,81,73,66,67,61,50,100,75,35,29.95,29.91,29.87,10,8,2,14,4,22,0.00,3,,284
2011-9-28,79,69,60,63,58,54,97,70,43,29.94,29.89,29.84,10,10,10,10,4,,0.00,0,,269
2011-9-29,81,70,60,60,58,56,97,67,44,29.91,29.88,29.85,10,10,10,12,4,18,0.00,1,,283
2011-9-30,73,66,57,59,50,41,90,61,30,29.90,29.85,29.81,10,10,10,17,8,25,0.00,1,,292